Вернуться в каталог

METEOR 2-17 DEB

АктивенPO
NORAD 28990·DEBRIS·🇷🇺 Russia

Запущен Jan 30, 1988 с Plesetsk Cosmodrome

Loading…

Ближайшие Пролёты (ближайшие 24 часа)

TLE

УстаревающийSource: Space-Track

Эпоха: Sep 9, 2026, 02:10 UTC

1 28990U 88005E   26252.09033621  .00001538  00000-0  94948-3 0  9994
2 28990  82.5144 164.6672 0014574 287.7650  72.1931 14.04802491617529

Отслеживайте METEOR 2-17 DEB в реальном времени с AllMySat

Download on the App Store